Weather in Tandag

Philippines     9°04′28″N   126°12′06″E
temp.,
°C
wind,
m/s
gust,
m/s
humid.,
%
clouds,
%
prec.,
mm/h
press.,
hPa
HPBL,
m
28 february, sun
sun2823:00+25w228910 0.0 1010133
02:00+25w238930 1.1 100991
05:00+25w228774 1.0 100975
08:00+27wnw117783 2.1 1012187
11:00+28ne1377100 2.0 1011439
14:00+29e3469100 3.9 1009972
17:00+28e347890 0.8 1009490
20:00+26e348471 1.6 1011362
1 march, mon
mon123:00+25ene12841 1.4 1012356
02:00+25wsw118811 1.8 1010191
05:00+24w119066 0.1 1011191
08:00+26wsw118357 0.1 1013256
11:00+29ne236671 0.0 1012739
14:00+29ene336480 0.0 1010632
17:00+28ne237393 0.1 1010435
20:00+26ne128182 0.2 1012467
2 march, tue
tue223:00+25wnw238590 0.1 1012239
02:00+24wnw229091 0.6 1011164
05:00+24w229133 1.6 1011147
08:00+26w118959 2.8 1013182
11:00+27ne238254 2.3 1013651
14:00+27ene248667 5.6 1010569
17:00+27ne238492 1.8 1011517
20:00+26ene238386 1.9 1012508
3 march, wed
wed323:00+25e128150 0.0 1013639
02:00+25w028054 0.1 1011482
05:00+25nnw137868 0.0 1012588
08:00+26n247852 0.0 1014567
11:00+28nne567229 0.3 1013927
14:00+27nne567664 0.7 1011810
17:00+27n468497 0.8 1011672
20:00+26ene468654 1.1 1013586
4 march, thu
thu423:00+25ene35839 0.1 1014685
02:00+25ne238142 0.2 1012638
05:00+24ne128498 0.3 1012394
08:00+26ne238698 1.4 1014444
11:00+28ne347676 0.6 1013759
14:00+28ne447353 0.8 1011730
17:00+27ene248214 0.5 1011610
20:00+25ne238535 2.2 1013447